QPF
0.07 0.07 0.07 0.07 0.07 0.07 0.06 0.05 0.05 0.05 0.06 0.04 0.04 0.04 0.04 0.04 0.03 0.04 0.04 0.05 0.06 0.06 0.05 0.06 0.05 0.06 0.07 0.07 0.07 0.06 0.06 0.07 0.06 0.04 0.04 0.04 0.05 0.05 0.05 0.06 0.06 0.06 0.08
0.07 0.07 0.07 0.08 0.08 0.07 0.06 0.05 0.05 0.05 0.05 0.04 0.04 0.04 0.03 0.03 0.03 0.04 0.04 0.05 0.05 0.05 0.05 0.05 0.05 0.05 0.06 0.07 0.07 0.06 0.07 0.08 0.08 0.06 0.05 0.05 0.05 0.04 0.05 0.05 0.04 0.04 0.06
0.07 0.07 0.08 0.09 0.08 0.06 0.05 0.05 0.05 0.05 0.04 0.04 0.04 0.03 0.03 0.03 0.03 0.03 0.03 0.04 0.04 0.04 0.05 0.05 0.05 0.07 0.07 0.08 0.08 0.07 0.07 0.07 0.08 0.06 0.04 0.04 0.04 0.03 0.05 0.04 0.03 0.04 0.03
0.07 0.07 0.07 0.07 0.06 0.05 0.04 0.05 0.05 0.04 0.04 0.04 0.03 0.03 0.03 0.03 0.03 0.03 0.03 0.04 0.04 0.04 0.05 0.06 0.07 0.09 0.09 0.09 0.08 0.08 0.08 0.07 0.07 0.05 0.04 0.04 0.04 0.04 0.05 0.05 0.06 0.06 0.04
0.08 0.07 0.05 0.05 0.04 0.04 0.05 0.06 0.05 0.05 0.04 0.03 0.03 0.02 0.02 0.03 0.02 0.03 0.05 0.06 0.07 0.07 0.08 0.07 0.07 0.08 0.08 0.08 0.07 0.07 0.07 0.07 0.07 0.06 0.05 0.05 0.05 0.05 0.04 0.05 0.05 0.05 0.04
0.06 0.05 0.03 0.04 0.04 0.06 0.07 0.07 0.06 0.06 0.05 0.03 0.03 0.04 0.04 0.03 0.03 0.03 0.04 0.04 0.05 0.05 0.05 0.06 0.06 0.06 0.05 0.05 0.05 0.05 0.05 0.05 0.05 0.06 0.05 0.05 0.04 0.05 0.06 0.05 0.05 0.05 0.04
0.03 0.03 0.03 0.04 0.04 0.06 0.06 0.07 0.08 0.08 0.06 0.04 0.03 0.04 0.04 0.05 0.05 0.04 0.04 0.04 0.04 0.05 0.07 0.08 0.06 0.04 0.03 0.04 0.05 0.04 0.02 0.02 0.03 0.05 0.05 0.05 0.05 0.05 0.05 0.05 0.05 0.05 0.05
0.04 0.03 0.03 0.03 0.04 0.05 0.05 0.08 0.10 0.09 0.06 0.05 0.04 0.04 0.05 0.05 0.04 0.04 0.04 0.04 0.04 0.06 0.07 0.07 0.07 0.05 0.04 0.03 0.04 0.03 0.03 0.02 0.02 0.02 0.03 0.04 0.04 0.04 0.04 0.05 0.05 0.05 0.05
0.03 0.04 0.03 0.03 0.03 0.04 0.05 0.06 0.09 0.08 0.06 0.06 0.05 0.05 0.06 0.04 0.04 0.04 0.04 0.04 0.05 0.06 0.05 0.04 0.04 0.03 0.02 0.02 0.03 0.03 0.03 0.03 0.03 0.02 0.03 0.03 0.02 0.02 0.03 0.04 0.04 0.05 0.04
0.03 0.03 0.03 0.02 0.02 0.02 0.04 0.04 0.05 0.05 0.04 0.04 0.06 0.07 0.07 0.05 0.05 0.04 0.03 0.04 0.04 0.03 0.03 0.02 0.02 0.02 0.02 0.02 0.03 0.03 0.02 0.03 0.04 0.03 0.03 0.03 0.02 0.02 0.03 0.03 0.04 0.05 0.05
0.04 0.03 0.02 0.02 0.01 0.02 0.03 0.04 0.04 0.04 0.04 0.05 0.05 0.05 0.05 0.05 0.04 0.04 0.04 0.02 0.02 0.02 0.02 0.01 0.01 0.01 0.01 0.01 0.02 0.03 0.02 0.02 0.03 0.03 0.03 0.03 0.04 0.04 0.04 0.04 0.04 0.05 0.06
0.05 0.04 0.02 0.02 0.01 0.02 0.02 0.03 0.04 0.05 0.05 0.04 0.04 0.03 0.03 0.03 0.02 0.02 0.02 0.01 0.01 0.02 0.02 0.01 0.01 0.02 0.01 0.01 0.01 0.01 0.01 0.02 0.03 0.03 0.03 0.03 0.04 0.03 0.03 0.03 0.04 0.05 0.05
0.05 0.06 0.04 0.02 0.01 0.01 0.01 0.02 0.04 0.05 0.03 0.02 0.02 0.02 0.02 0.01 0.02 0.01 0.01 0.01 0.01 0.01 0.01 0.02 0.02 0.01 0.01 0.01 0.01 0.02 0.02 0.02 0.03 0.04 0.04 0.04 0.04 0.04 0.03 0.03 0.03 0.03 0.04
0.05 0.05 0.05 0.03 0.01 0.01 0.01 0.01 0.02 0.02 0.02 0.02 0.02 0.02 0.02 0.01 0.01 0.01 0.01 0.01 0.01 0.01 0.01 0.01 0.01 0.02 0.02 0.02 0.02 0.03 0.03 0.03 0.03 0.03 0.04 0.04 0.05 0.05 0.04 0.03 0.03 0.03 0.03
0.05 0.06 0.05 0.03 0.02 0.01 0.01 0.01 0.01 0.01 0.02 0.02 0.02 0.02 0.01 0.01 0.00 0.00 0.00 0.00 0.01 0.01 0.01 0.02 0.02 0.03 0.02 0.02 0.03 0.03 0.04 0.04 0.03 0.03 0.05 0.05 0.05 0.05 0.05 0.04 0.03 0.04 0.04
0.03 0.03 0.03 0.02 0.02 0.02 0.01 0.01 0.01 0.01 0.01 0.01 0.01 0.01 0.01 0.00 0.00 0.00 0.00 0.00 0.00 0.01 0.01 0.01 0.02 0.02 0.02 0.02 0.03 0.03 0.04 0.04 0.04 0.05 0.05 0.06 0.06 0.05 0.05 0.05 0.05 0.05 0.06
0.04 0.03 0.02 0.02 0.02 0.02 0.02 0.02 0.01 0.01 0.01 0.01 0.01 0.01 0.01 0.01 0.00 0.00 0.00 0.00 0.01 0.01 0.02 0.02 0.02 0.03 0.02 0.02 0.02 0.03 0.03 0.04 0.05 0.05 0.05 0.05 0.05 0.05 0.05 0.05 0.05 0.05 0.05
0.03 0.02 0.02 0.02 0.02 0.02 0.02 0.01 0.01 0.01 0.01 0.01 0.01 0.01 0.01 0.01 0.01 0.01 0.01 0.01 0.01 0.02 0.03 0.03 0.03 0.03 0.03 0.03 0.03 0.02 0.03 0.04 0.05 0.05 0.05 0.05 0.05 0.05 0.04 0.04 0.03 0.03 0.04
0.01 0.01 0.01 0.01 0.01 0.01 0.01 0.00 0.00 0.01 0.01 0.01 0.01 0.02 0.02 0.01 0.01 0.01 0.01 0.01 0.01 0.02 0.02 0.02 0.02 0.02 0.03 0.03 0.03 0.03 0.04 0.04 0.05 0.05 0.05 0.04 0.03 0.03 0.03 0.03 0.03 0.03 0.03
0.01 0.01 0.01 0.01 0.00 0.00 0.00 0.00 0.00 0.01 0.01 0.01 0.01 0.01 0.01 0.01 0.01 0.01 0.02 0.02 0.02 0.02 0.02 0.02 0.02 0.01 0.01 0.02 0.02 0.02 0.03 0.02 0.02 0.03 0.04 0.03 0.02 0.02 0.02 0.02 0.03 0.03 0.03
0.01 0.00 0.00 0.00 0.00 0.00 0.00 0.01 0.01 0.01 0.01 0.01 0.01 0.01 0.01 0.01 0.01 0.00 0.01 0.01 0.01 0.01 0.01 0.01 0.01 0.01 0.01 0.01 0.02 0.02 0.02 0.02 0.02 0.02 0.03 0.03 0.02 0.02 0.01 0.02 0.03 0.03 0.03
0.00 0.00 0.00 0.00 0.00 0.00 0.01 0.00 0.00 0.00 0.00 0.01 0.01 0.01 0.01 0.01 0.01 0.01 0.01 0.01 0.01 0.01 0.01 0.00 0.01 0.01 0.01 0.02 0.02 0.03 0.02 0.02 0.01 0.02 0.03 0.02 0.02 0.02 0.02 0.02 0.03 0.03 0.03
0.01 0.00 0.00 0.00 0.00 0.00 0.00 0.00 0.00 0.00 0.01 0.01 0.01 0.01 0.01 0.01 0.01 0.01 0.01 0.01 0.01 0.01 0.01 0.01 0.01 0.01 0.01 0.02 0.02 0.02 0.01 0.01 0.01 0.01 0.02 0.02 0.02 0.01 0.02 0.02 0.02 0.03 0.03
0.01 0.00 0.00 0.00 0.00 0.00 0.00 0.00 0.00 0.00 0.01 0.01 0.01 0.01 0.00 0.01 0.01 0.01 0.01 0.01 0.01 0.01 0.01 0.01 0.01 0.01 0.01 0.01 0.01 0.01 0.00 0.00 0.00 0.01 0.02 0.02 0.02 0.02 0.02 0.02 0.02 0.02 0.03
0.00 0.00 0.00 0.00 0.00 0.00 0.00 0.00 0.00 0.00 0.01 0.02 0.02 0.01 0.00 0.00 0.00 0.00 0.00 0.01 0.01 0.01 0.01 0.01 0.01 0.00 0.00 0.00 0.00 0.00 0.00 0.00 0.00 0.01 0.01 0.02 0.02 0.03 0.03 0.03 0.02 0.02 0.02
0.00 0.00 0.00 0.00 0.00 0.00 0.00 0.00 0.00 0.00 0.01 0.02 0.01 0.01 0.01 0.01 0.01 0.01 0.00 0.01 0.01 0.01 0.01 0.01 0.01 0.01 0.00 0.00 0.00 0.00 0.00 0.00 0.00 0.00 0.01 0.01 0.02 0.02 0.02 0.01 0.01 0.01 0.02
MSLP
1016.57 1016.79 1017.00 1017.17 1017.28 1017.33 1017.33 1017.30 1017.24 1017.18 1017.14 1017.12 1017.10 1017.09 1017.07 1017.02 1016.95 1016.86 1016.75 1016.63 1016.53 1016.44 1016.37 1016.32 1016.27 1016.22 1016.12 1015.98 1015.78 1015.50 1015.15 1014.73 1014.24 1013.70 1013.12 1012.50 1011.87 1011.24 1010.63 1010.06 1009.54 1009.09 1008.72
1016.96 1017.12 1017.28 1017.40 1017.47 1017.49 1017.46 1017.39 1017.31 1017.22 1017.13 1017.06 1017.00 1016.95 1016.89 1016.82 1016.73 1016.62 1016.50 1016.37 1016.24 1016.12 1016.02 1015.92 1015.83 1015.73 1015.61 1015.46 1015.27 1015.03 1014.74 1014.39 1013.99 1013.53 1013.02 1012.46 1011.88 1011.27 1010.65 1010.05 1009.49 1008.97 1008.52
1017.21 1017.33 1017.44 1017.52 1017.57 1017.57 1017.53 1017.45 1017.35 1017.25 1017.15 1017.05 1016.97 1016.89 1016.81 1016.73 1016.63 1016.52 1016.38 1016.24 1016.09 1015.93 1015.78 1015.63 1015.48 1015.33 1015.17 1015.01 1014.82 1014.61 1014.36 1014.08 1013.75 1013.38 1012.95 1012.47 1011.95 1011.38 1010.79 1010.19 1009.61 1009.05 1008.54
1017.32 1017.40 1017.48 1017.55 1017.58 1017.57 1017.54 1017.47 1017.38 1017.28 1017.17 1017.08 1016.99 1016.91 1016.83 1016.74 1016.64 1016.52 1016.38 1016.22 1016.04 1015.85 1015.65 1015.44 1015.24 1015.04 1014.84 1014.65 1014.46 1014.26 1014.05 1013.82 1013.56 1013.26 1012.92 1012.52 1012.06 1011.56 1011.02 1010.45 1009.87 1009.30 1008.76
1017.31 1017.37 1017.43 1017.48 1017.51 1017.51 1017.49 1017.43 1017.36 1017.28 1017.19 1017.10 1017.02 1016.94 1016.86 1016.78 1016.68 1016.56 1016.41 1016.23 1016.03 1015.81 1015.56 1015.31 1015.06 1014.82 1014.58 1014.37 1014.17 1013.98 1013.79 1013.61 1013.40 1013.17 1012.90 1012.57 1012.19 1011.76 1011.28 1010.76 1010.20 1009.64 1009.09
1017.20 1017.25 1017.30 1017.34 1017.37 1017.39 1017.37 1017.34 1017.28 1017.21 1017.13 1017.06 1016.98 1016.90 1016.83 1016.74 1016.64 1016.51 1016.35 1016.17 1015.95 1015.70 1015.43 1015.15 1014.88 1014.60 1014.35 1014.12 1013.92 1013.74 1013.58 1013.42 1013.26 1013.07 1012.86 1012.59 1012.28 1011.92 1011.50 1011.03 1010.53 1010.00 1009.46
1017.02 1017.06 1017.11 1017.15 1017.19 1017.21 1017.20 1017.18 1017.13 1017.06 1016.98 1016.90 1016.82 1016.73 1016.64 1016.55 1016.43 1016.30 1016.13 1015.93 1015.71 1015.45 1015.18 1014.90 1014.62 1014.35 1014.10 1013.88 1013.68 1013.51 1013.36 1013.22 1013.08 1012.93 1012.75 1012.53 1012.27 1011.96 1011.61 1011.20 1010.75 1010.27 1009.76
1016.78 1016.83 1016.88 1016.93 1016.97 1016.99 1016.98 1016.95 1016.89 1016.81 1016.72 1016.61 1016.51 1016.40 1016.28 1016.16 1016.03 1015.88 1015.70 1015.51 1015.28 1015.04 1014.78 1014.52 1014.26 1014.02 1013.80 1013.60 1013.42 1013.27 1013.13 1013.00 1012.86 1012.72 1012.55 1012.35 1012.12 1011.85 1011.54 1011.19 1010.80 1010.37 1009.91
1016.48 1016.55 1016.62 1016.68 1016.72 1016.74 1016.72 1016.68 1016.59 1016.49 1016.36 1016.22 1016.07 1015.93 1015.78 1015.63 1015.47 1015.30 1015.13 1014.93 1014.72 1014.51 1014.28 1014.06 1013.84 1013.64 1013.45 1013.29 1013.13 1012.99 1012.86 1012.72 1012.57 1012.42 1012.24 1012.04 1011.81 1011.56 1011.28 1010.97 1010.63 1010.26 1009.85
1016.14 1016.23 1016.32 1016.40 1016.45 1016.46 1016.43 1016.36 1016.25 1016.11 1015.95 1015.76 1015.58 1015.39 1015.21 1015.03 1014.85 1014.68 1014.50 1014.32 1014.13 1013.95 1013.77 1013.59 1013.42 1013.26 1013.11 1012.96 1012.83 1012.69 1012.54 1012.39 1012.22 1012.03 1011.82 1011.60 1011.36 1011.11 1010.85 1010.57 1010.27 1009.95 1009.60
1015.75 1015.87 1015.98 1016.07 1016.12 1016.13 1016.10 1016.01 1015.88 1015.71 1015.51 1015.29 1015.08 1014.86 1014.65 1014.46 1014.28 1014.10 1013.93 1013.77 1013.62 1013.46 1013.32 1013.17 1013.04 1012.91 1012.78 1012.64 1012.51 1012.36 1012.19 1012.00 1011.79 1011.56 1011.32 1011.06 1010.81 1010.55 1010.29 1010.03 1009.76 1009.49 1009.18
1015.32 1015.45 1015.58 1015.68 1015.74 1015.75 1015.70 1015.60 1015.45 1015.26 1015.05 1014.82 1014.59 1014.37 1014.16 1013.97 1013.80 1013.65 1013.50 1013.37 1013.23 1013.11 1012.98 1012.85 1012.73 1012.60 1012.46 1012.31 1012.15 1011.97 1011.77 1011.54 1011.29 1011.02 1010.75 1010.46 1010.19 1009.92 1009.66 1009.42 1009.18 1008.94 1008.68
1014.87 1015.00 1015.12 1015.22 1015.27 1015.27 1015.22 1015.11 1014.95 1014.75 1014.54 1014.32 1014.10 1013.90 1013.72 1013.57 1013.43 1013.31 1013.20 1013.09 1012.97 1012.85 1012.73 1012.59 1012.44 1012.28 1012.11 1011.92 1011.71 1011.49 1011.25 1010.98 1010.70 1010.41 1010.12 1009.83 1009.55 1009.29 1009.04 1008.81 1008.60 1008.38 1008.16
1014.42 1014.52 1014.61 1014.68 1014.71 1014.69 1014.61 1014.48 1014.31 1014.12 1013.92 1013.72 1013.54 1013.38 1013.26 1013.16 1013.07 1013.00 1012.92 1012.84 1012.74 1012.61 1012.46 1012.28 1012.08 1011.86 1011.63 1011.38 1011.12 1010.85 1010.57 1010.29 1010.00 1009.72 1009.44 1009.18 1008.92 1008.69 1008.47 1008.26 1008.07 1007.87 1007.68
1014.01 1014.05 1014.08 1014.09 1014.06 1013.98 1013.86 1013.70 1013.52 1013.32 1013.13 1012.96 1012.83 1012.73 1012.67 1012.63 1012.61 1012.59 1012.55 1012.49 1012.38 1012.23 1012.04 1011.80 1011.53 1011.23 1010.92 1010.60 1010.28 1009.98 1009.68 1009.41 1009.15 1008.92 1008.70 1008.49 1008.30 1008.13 1007.95 1007.79 1007.61 1007.44 1007.24
1013.66 1013.61 1013.55 1013.47 1013.35 1013.18 1012.99 1012.77 1012.54 1012.33 1012.14 1011.99 1011.90 1011.85 1011.85 1011.88 1011.92 1011.94 1011.94 1011.88 1011.76 1011.57 1011.32 1011.01 1010.66 1010.28 1009.88 1009.50 1009.15 1008.83 1008.55 1008.32 1008.13 1007.98 1007.86 1007.75 1007.66 1007.57 1007.47 1007.35 1007.21 1007.05 1006.86
1013.40 1013.24 1013.06 1012.86 1012.62 1012.34 1012.05 1011.75 1011.46 1011.20 1010.99 1010.85 1010.77 1010.76 1010.80 1010.87 1010.95 1011.00 1011.01 1010.95 1010.80 1010.57 1010.25 1009.87 1009.43 1008.98 1008.52 1008.10 1007.72 1007.41 1007.18 1007.01 1006.92 1006.89 1006.90 1006.92 1006.96 1006.97 1006.96 1006.91 1006.81 1006.66 1006.47
1013.22 1012.94 1012.64 1012.30 1011.93 1011.53 1011.12 1010.72 1010.35 1010.03 1009.78 1009.62 1009.54 1009.53 1009.58 1009.66 1009.75 1009.80 1009.80 1009.71 1009.53 1009.24 1008.86 1008.41 1007.91 1007.39 1006.89 1006.44 1006.07 1005.79 1005.61 1005.54 1005.56 1005.65 1005.80 1005.97 1006.13 1006.27 1006.35 1006.37 1006.32 1006.20 1006.01
1013.11 1012.73 1012.31 1011.85 1011.35 1010.84 1010.32 1009.82 1009.36 1008.97 1008.66 1008.45 1008.33 1008.30 1008.32 1008.38 1008.44 1008.47 1008.43 1008.30 1008.06 1007.72 1007.28 1006.77 1006.22 1005.66 1005.13 1004.67 1004.31 1004.07 1003.95 1003.96 1004.09 1004.30 1004.57 1004.87 1005.16 1005.40 1005.59 1005.68 1005.69 1005.60 1005.43
1013.03 1012.57 1012.06 1011.51 1010.92 1010.31 1009.71 1009.12 1008.59 1008.13 1007.76 1007.49 1007.32 1007.23 1007.21 1007.21 1007.22 1007.18 1007.09 1006.89 1006.60 1006.20 1005.71 1005.15 1004.56 1003.97 1003.42 1002.96 1002.61 1002.39 1002.32 1002.39 1002.58 1002.88 1003.24 1003.63 1004.01 1004.35 1004.61 1004.79 1004.86 1004.82 1004.69
1012.93 1012.43 1011.87 1011.28 1010.64 1009.98 1009.33 1008.70 1008.13 1007.62 1007.20 1006.87 1006.64 1006.49 1006.39 1006.32 1006.24 1006.13 1005.96 1005.70 1005.34 1004.89 1004.35 1003.76 1003.14 1002.52 1001.96 1001.49 1001.13 1000.91 1000.85 1000.93 1001.14 1001.46 1001.85 1002.29 1002.72 1003.11 1003.44 1003.68 1003.82 1003.85 1003.79
1012.75 1012.25 1011.70 1011.10 1010.47 1009.82 1009.17 1008.54 1007.96 1007.44 1006.99 1006.62 1006.33 1006.11 1005.94 1005.78 1005.62 1005.43 1005.18 1004.85 1004.44 1003.94 1003.37 1002.75 1002.11 1001.47 1000.89 1000.39 1000.00 999.75 999.64 999.67 999.84 1000.12 1000.48 1000.89 1001.32 1001.73 1002.10 1002.39 1002.61 1002.73 1002.77
1012.46 1011.99 1011.47 1010.92 1010.33 1009.74 1009.14 1008.55 1008.01 1007.50 1007.06 1006.68 1006.36 1006.08 1005.84 1005.62 1005.38 1005.12 1004.80 1004.42 1003.97 1003.44 1002.85 1002.21 1001.56 1000.91 1000.30 999.75 999.31 998.97 998.77 998.70 998.75 998.93 999.19 999.53 999.91 1000.30 1000.67 1001.01 1001.30 1001.52 1001.67
1012.02 1011.60 1011.14 1010.66 1010.15 1009.63 1009.11 1008.61 1008.12 1007.67 1007.26 1006.89 1006.55 1006.25 1005.97 1005.70 1005.41 1005.10 1004.74 1004.33 1003.86 1003.33 1002.74 1002.11 1001.45 1000.79 1000.14 999.55 999.02 998.58 998.25 998.03 997.93 997.94 998.06 998.28 998.57 998.90 999.27 999.63 999.99 1000.31 1000.59
1011.43 1011.05 1010.66 1010.25 1009.83 1009.40 1008.97 1008.55 1008.15 1007.76 1007.40 1007.06 1006.73 1006.43 1006.14 1005.84 1005.54 1005.21 1004.84 1004.44 1003.98 1003.47 1002.91 1002.30 1001.66 1000.99 1000.32 999.67 999.05 998.49 998.01 997.62 997.34 997.17 997.13 997.20 997.37 997.64 997.98 998.36 998.78 999.19 999.59
1010.71 1010.37 1010.02 1009.67 1009.32 1008.97 1008.63 1008.29 1007.95 1007.63 1007.32 1007.03 1006.74 1006.45 1006.17 1005.89 1005.59 1005.27 1004.93 1004.56 1004.14 1003.68 1003.17 1002.60 1001.99 1001.33 1000.65 999.95 999.25 998.57 997.95 997.40 996.94 996.60 996.39 996.31 996.38 996.57 996.87 997.27 997.73 998.23 998.74
Thickness
5683 5681 5679 5677 5676 5675 5673 5671 5670 5669 5668 5666 5665 5663 5661 5659 5657 5655 5653 5651 5648 5646 5644 5642 5641 5640 5638 5637 5635 5633 5631 5627 5624 5627 5629 5631 5630 5630 5630 5630 5630 5630 5630
5682 5679 5676 5674 5672 5671 5669 5668 5667 5666 5665 5663 5661 5659 5657 5655 5653 5651 5649 5647 5644 5642 5640 5638 5636 5635 5632 5630 5628 5626 5625 5623 5620 5618 5620 5622 5623 5623 5623 5623 5624 5626 5626
5679 5676 5673 5670 5669 5667 5666 5666 5665 5664 5662 5660 5658 5655 5653 5652 5649 5647 5645 5644 5641 5639 5637 5634 5632 5630 5626 5624 5622 5620 5619 5618 5616 5613 5614 5615 5616 5617 5616 5616 5617 5618 5620
5676 5673 5669 5667 5666 5665 5664 5663 5662 5661 5659 5657 5654 5652 5650 5648 5645 5643 5641 5639 5637 5635 5633 5631 5628 5625 5622 5619 5616 5614 5612 5610 5608 5607 5607 5608 5608 5610 5608 5607 5607 5610 5611
5673 5670 5667 5666 5665 5664 5662 5661 5660 5658 5656 5653 5651 5649 5647 5644 5641 5638 5636 5635 5633 5630 5628 5626 5624 5621 5618 5614 5611 5608 5605 5603 5602 5600 5600 5600 5601 5600 5600 5601 5600 5601 5604
5670 5668 5666 5664 5663 5662 5660 5658 5656 5654 5652 5649 5646 5644 5642 5639 5635 5634 5631 5630 5628 5625 5623 5621 5619 5616 5613 5609 5606 5603 5600 5597 5596 5594 5593 5593 5593 5593 5594 5593 5592 5592 5594
5668 5666 5664 5662 5660 5659 5658 5655 5652 5649 5646 5644 5642 5640 5637 5633 5631 5629 5626 5624 5623 5621 5618 5615 5613 5613 5608 5604 5601 5598 5596 5594 5591 5588 5587 5587 5587 5588 5586 5586 5585 5585 5586
5665 5663 5662 5659 5657 5656 5654 5650 5648 5645 5642 5640 5638 5636 5633 5629 5626 5624 5622 5620 5619 5617 5615 5612 5608 5604 5601 5597 5596 5594 5592 5590 5588 5585 5584 5584 5584 5583 5582 5581 5580 5581 5583
5661 5659 5658 5657 5654 5652 5649 5647 5644 5641 5639 5638 5636 5633 5630 5626 5622 5620 5617 5617 5615 5613 5610 5608 5605 5600 5595 5591 5590 5588 5586 5584 5584 5583 5581 5580 5579 5579 5577 5575 5574 5573 5574
5659 5658 5656 5655 5652 5649 5646 5643 5641 5638 5636 5636 5633 5631 5628 5624 5619 5616 5613 5612 5610 5608 5606 5604 5600 5595 5590 5586 5584 5582 5579 5579 5578 5578 5577 5576 5575 5575 5573 5571 5569 5567 5568
5658 5657 5655 5653 5650 5647 5644 5641 5638 5636 5634 5633 5630 5628 5626 5622 5617 5613 5609 5607 5605 5604 5602 5599 5595 5590 5586 5582 5578 5576 5574 5573 5572 5572 5572 5572 5571 5571 5571 5569 5567 5564 5563
5657 5654 5652 5650 5648 5646 5642 5639 5636 5633 5631 5629 5627 5625 5622 5619 5615 5611 5607 5603 5602 5599 5597 5594 5591 5586 5582 5578 5575 5573 5571 5568 5567 5566 5566 5565 5566 5566 5566 5566 5564 5562 5561
5654 5651 5649 5647 5645 5643 5640 5636 5634 5631 5629 5627 5625 5622 5619 5617 5613 5609 5605 5601 5598 5595 5593 5589 5586 5582 5578 5576 5573 5570 5567 5564 5563 5562 5561 5561 5562 5562 5562 5562 5561 5560 5559
5650 5648 5647 5645 5643 5641 5639 5636 5632 5629 5626 5624 5622 5620 5617 5614 5609 5605 5602 5599 5594 5591 5588 5586 5582 5579 5576 5573 5571 5568 5565 5562 5560 5559 5558 5558 5559 5558 5558 5557 5555 5555 5554
5649 5647 5645 5644 5642 5639 5636 5632 5629 5625 5622 5620 5617 5615 5613 5609 5604 5599 5595 5594 5590 5587 5583 5582 5580 5577 5574 5571 5569 5566 5564 5561 5558 5556 5555 5554 5554 5553 5553 5552 5552 5551 5549
5647 5644 5644 5643 5641 5639 5635 5631 5626 5622 5618 5616 5613 5610 5608 5604 5601 5597 5594 5591 5587 5583 5580 5579 5577 5574 5571 5568 5564 5562 5560 5557 5554 5553 5551 5550 5549 5548 5548 5548 5548 5546 5545
5645 5644 5643 5642 5640 5638 5635 5631 5626 5620 5616 5613 5610 5608 5604 5601 5598 5595 5592 5589 5585 5581 5579 5577 5574 5571 5567 5564 5560 5558 5555 5553 5551 5548 5547 5545 5544 5543 5543 5542 5542 5541 5540
5645 5643 5641 5641 5640 5638 5635 5632 5628 5624 5619 5616 5611 5606 5603 5599 5596 5593 5589 5585 5585 5582 5578 5575 5571 5568 5564 5560 5557 5554 5552 5549 5547 5545 5543 5541 5540 5538 5537 5536 5536 5535 5534
5642 5642 5640 5640 5638 5636 5634 5632 5629 5626 5622 5619 5614 5608 5602 5599 5594 5590 5585 5583 5582 5579 5575 5572 5569 5565 5561 5558 5554 5551 5548 5546 5543 5540 5538 5536 5535 5533 5532 5531 5530 5529 5529
5640 5638 5637 5636 5636 5634 5632 5630 5627 5623 5619 5617 5612 5608 5604 5599 5595 5591 5586 5582 5579 5575 5572 5569 5565 5562 5558 5555 5551 5548 5545 5542 5540 5537 5534 5532 5531 5529 5528 5527 5526 5525 5525
5639 5637 5633 5634 5633 5631 5629 5626 5623 5619 5616 5613 5610 5605 5600 5597 5593 5589 5585 5581 5577 5573 5569 5566 5562 5559 5555 5552 5548 5544 5541 5538 5535 5533 5530 5529 5527 5526 5525 5523 5522 5521 5520
5637 5636 5634 5632 5630 5627 5625 5623 5620 5617 5614 5610 5607 5604 5597 5595 5592 5588 5584 5580 5576 5572 5568 5563 5559 5555 5551 5548 5544 5540 5536 5532 5530 5528 5527 5525 5524 5522 5521 5519 5518 5516 5515
5634 5634 5632 5630 5628 5623 5622 5620 5618 5614 5611 5608 5605 5602 5597 5593 5589 5584 5581 5577 5572 5568 5564 5560 5556 5551 5548 5544 5541 5537 5532 5528 5525 5524 5523 5522 5521 5519 5518 5516 5515 5513 5512
5633 5632 5630 5628 5625 5622 5619 5617 5614 5611 5608 5605 5602 5598 5594 5589 5585 5581 5577 5573 5569 5565 5561 5556 5552 5548 5544 5541 5538 5534 5529 5525 5523 5522 5520 5519 5518 5517 5516 5514 5512 5511 5509
5630 5629 5627 5625 5623 5620 5617 5614 5611 5608 5605 5601 5597 5594 5591 5587 5583 5579 5574 5570 5566 5561 5556 5552 5548 5544 5540 5537 5533 5530 5527 5524 5522 5520 5518 5517 5516 5514 5512 5510 5508 5506 5505
5627 5626 5624 5623 5620 5617 5614 5611 5608 5605 5602 5598 5594 5591 5587 5584 5580 5575 5571 5567 5562 5558 5553 5549 5545 5541 5537 5534 5530 5527 5525 5523 5521 5519 5517 5515 5513 5511 5509 5507 5505 5503 5502